Regional Weather Roundup
Issued by NWS

Home | Current Version | Previous Version | Text Only | Print | Product List | Glossary On
Versions: 1 2 3 4 5 6 7 8 9 10 11 12 13 14 15 16 17 18 19 20 21 22 23 24 25 26 27 28 29 30 31 32 33 34 35 36 37 38 39 40 41 42 43 44 45 46 47 48 49 50
000
ASUS43 KFSD 251710
RWRSD

WEATHER ROUNDUP FOR SOUTH DAKOTA
NATIONAL WEATHER SERVICE SIOUX FALLS SD
1200 PM CDT WED MAY 25 2016

NOTE: "FAIR" INDICATES FEW OR NO CLOUDS BELOW 12,000 FEET WITH NO
SIGNIFICANT WEATHER AND/OR OBSTRUCTIONS TO VISIBILITY.


SDZ001>005-009-010-012>017-251800-
NORTHWEST AND NORTH CENTRAL SOUTH DAKOTA

CITY           SKY/WX    TMP DP  RH WIND       PRES   REMARKS
BUFFALO          N/A     58  47  66 NW17G25   29.79R
FAITH            N/A     66  50  56 W17G23    29.81S
MOBRIDGE       PTSUNNY   72  55  55 VRB3      29.74F
$$

SDZ012>016-024>037-041>051-057-063-072>074-251800-
SOUTHWEST AND SOUTH CENTRAL SOUTH DAKOTA

CITY           SKY/WX    TMP DP  RH WIND       PRES   REMARKS
RAPID CTY ARPT PTSUNNY   66  52  60 E7        29.84S
PIERRE         MOSUNNY   69  57  65 W15       29.77F
CUSTER         PTSUNNY   53  43  68 W9G23     29.93R
ELLSWORTH AFB  MOSUNNY   65  52  61 N15       29.84R
PHILIP         MOSUNNY   68  55  63 W12       29.81R
PINE RIDGE     SUNNY     65  49  56 W14G21    29.89S
WINNER         FAIR      69  59  70 W12       29.82S
$$

SDZ004>011-016>023-039-040-251800-
NORTHEAST SOUTH DAKOTA

CITY           SKY/WX    TMP DP  RH WIND       PRES   REMARKS
ABERDEEN       CLOUDY    68  59  73 CALM      29.74R
WATERTOWN      PTSUNNY   70  60  70 SW21G30   29.76R
BROOKINGS      CLOUDY    68  59  73 S15       29.81
SISSETON         N/A     66  62  87 S15G24    29.71F
$$

SDZ017-020-022-023-036>040-048>070-251800-
SOUTHEAST SOUTH DAKOTA

CITY           SKY/WX    TMP DP  RH WIND       PRES   REMARKS
SIOUX FALLS    MOSUNNY   71  60  68 SW8       29.82R
HURON          MOSUNNY   70  59  68 W13       29.77F
CHAMBERLAIN    MOSUNNY   69  61  76 W10       29.80F
MITCHELL       MOSUNNY   69  60  73 W5        29.80S
YANKTON        SUNNY     73  61  64 W9        29.81R
$$

ABBREVIATIONS USED IN REMARKS
   TC - TEMPERATURE IN CELSIUS
  WCI - WIND CHILL INDEX
   HX - HEAT INDEX
  VSB - VISIBILITY





USA.gov is the U.S. government's official web portal to all federal, state and local government web resources and services.